timestamp,wind_dir_avg,wind_spd_avg,wind_spd_max_dir,wind_spd_gust,battery_voltage,lat,long
2023-10-23 00:04:00+00:00,4.0,10.15,19.0,13.1,12.41,47.59359,-54.27349
2023-10-23 00:14:01+00:00,358.0,8.45,359.0,9.32,12.33,47.59359,-54.27349
2023-10-23 00:24:01+00:00,359.0,7.44,0.0,8.47,12.33,47.59359,-54.27349
2023-10-23 00:34:01+00:00,359.0,7.16,10.0,8.16,12.33,47.59359,-54.27349
2023-10-23 00:44:01+00:00,10.0,6.34,14.0,7.96,12.33,47.59359,-54.27349
2023-10-23 00:54:01+00:00,355.0,8.95,355.0,9.83,12.33,47.59359,-54.27349
2023-10-23 01:04:01+00:00,359.0,8.07,356.0,10.09,12.33,47.59359,-54.27349
2023-10-23 01:14:01+00:00,7.0,8.15,4.0,10.02,12.25,47.59359,-54.27349
2023-10-23 01:24:01+00:00,2.0,8.26,3.0,9.69,12.25,47.59359,-54.27349
2023-10-23 01:34:01+00:00,5.0,5.02,12.0,6.15,12.25,47.59359,-54.27349
2023-10-23 01:44:01+00:00,4.0,8.23,7.0,9.41,12.25,47.59359,-54.27349
2023-10-23 01:54:01+00:00,15.0,7.49,20.0,8.86,12.25,47.59359,-54.27349
2023-10-23 02:04:01+00:00,19.0,9.26,16.0,10.43,12.25,47.59359,-54.27349
2023-10-23 02:14:00+00:00,8.0,7.8,2.0,9.53,12.33,47.59359,-54.27349
2023-10-23 02:24:00+00:00,7.0,8.78,24.0,10.49,12.33,47.59359,-54.27349
2023-10-23 02:34:00+00:00,10.0,9.2,27.0,11.56,12.33,47.59359,-54.27349
2023-10-23 02:44:00+00:00,17.0,8.79,17.0,10.44,12.33,47.59359,-54.27349
2023-10-23 02:54:00+00:00,10.0,7.16,32.0,9.17,12.33,47.59359,-54.27349
2023-10-23 03:04:00+00:00,23.0,8.94,28.0,10.76,12.33,47.59359,-54.27349
2023-10-23 03:14:01+00:00,13.0,7.87,27.0,10.7,12.33,47.59359,-54.27349
2023-10-23 03:24:01+00:00,14.0,7.93,25.0,10.08,12.33,47.59359,-54.27349
2023-10-23 03:34:01+00:00,20.0,9.44,29.0,11.57,12.33,47.59359,-54.27349
2023-10-23 03:44:01+00:00,21.0,8.2,19.0,9.99,12.33,47.59359,-54.27349
2023-10-23 03:54:01+00:00,24.0,8.92,26.0,10.11,12.33,47.59359,-54.27349
2023-10-23 04:04:01+00:00,30.0,7.65,32.0,8.21,12.33,47.59359,-54.27349
2023-10-23 04:14:01+00:00,24.0,7.45,21.0,8.45,12.25,47.59359,-54.27349
2023-10-23 04:24:01+00:00,24.0,8.84,32.0,10.06,12.25,47.59359,-54.27349
2023-10-23 04:34:01+00:00,25.0,8.68,32.0,10.24,12.25,47.59359,-54.27349
2023-10-23 04:44:01+00:00,26.0,8.63,28.0,9.44,12.25,47.59359,-54.27349
2023-10-23 04:54:01+00:00,23.0,9.69,33.0,10.54,12.25,47.59359,-54.27349
2023-10-23 05:04:01+00:00,24.0,8.39,34.0,9.4,12.25,47.59359,-54.27349
2023-10-23 05:14:00+00:00,23.0,10.32,31.0,11.59,12.33,47.59359,-54.27349
2023-10-23 05:24:00+00:00,10.0,9.11,16.0,11.6,12.33,47.59359,-54.27349
2023-10-23 05:34:00+00:00,22.0,9.41,24.0,12.67,12.33,47.59359,-54.27349
2023-10-23 05:44:00+00:00,20.0,10.36,27.0,11.82,12.33,47.59359,-54.27349
2023-10-23 05:54:00+00:00,22.0,10.28,30.0,11.63,12.33,47.59359,-54.27349
2023-10-23 06:04:00+00:00,21.0,10.33,22.0,11.73,12.33,47.59359,-54.27349
2023-10-23 06:14:00+00:00,19.0,11.23,17.0,12.43,12.33,47.59359,-54.27349
2023-10-23 06:24:00+00:00,29.0,9.9,26.0,11.33,12.33,47.59359,-54.27349
2023-10-23 06:34:00+00:00,24.0,8.37,36.0,9.87,12.33,47.59359,-54.27349
2023-10-23 06:44:00+00:00,23.0,8.85,24.0,9.99,12.33,47.59359,-54.27349
2023-10-23 06:54:00+00:00,29.0,8.23,26.0,9.52,12.33,47.59359,-54.27349
2023-10-23 07:04:00+00:00,24.0,8.06,36.0,9.85,12.33,47.59359,-54.27349
2023-10-23 07:14:00+00:00,21.0,8.02,32.0,9.56,12.33,47.59359,-54.27349
2023-10-23 07:24:00+00:00,25.0,7.74,29.0,9.02,12.33,47.59359,-54.27349
2023-10-23 07:34:00+00:00,28.0,6.4,31.0,7.22,12.33,47.59359,-54.27349
2023-10-23 07:44:00+00:00,32.0,9.92,37.0,11.42,12.33,47.59359,-54.27349
2023-10-23 07:54:00+00:00,28.0,9.23,28.0,10.57,12.33,47.59359,-54.27349
2023-10-23 08:04:00+00:00,29.0,8.92,34.0,10.67,12.33,47.59359,-54.27349
2023-10-23 08:14:00+00:00,29.0,8.59,30.0,10.84,12.33,47.59359,-54.27349
2023-10-23 08:24:00+00:00,34.0,9.81,32.0,11.28,12.33,47.59359,-54.27349
2023-10-23 08:34:00+00:00,38.0,10.68,39.0,12.07,12.33,47.59359,-54.27349
2023-10-23 08:44:00+00:00,18.0,10.85,19.0,11.94,12.33,47.59359,-54.27349
2023-10-23 08:54:00+00:00,39.0,11.78,49.0,14.7,12.33,47.59359,-54.27349
2023-10-23 09:04:00+00:00,33.0,12.51,41.0,13.72,12.33,47.59359,-54.27349
2023-10-23 09:14:00+00:00,25.0,11.55,24.0,13.08,12.25,47.59359,-54.27349
2023-10-23 09:24:00+00:00,33.0,12.43,30.0,13.96,12.25,47.59359,-54.27349
2023-10-23 09:34:00+00:00,39.0,11.64,49.0,14.28,12.25,47.59359,-54.27349
2023-10-23 09:44:00+00:00,32.0,13.51,31.0,14.98,12.25,47.59359,-54.27349
2023-10-23 09:54:00+00:00,45.0,13.42,50.0,16.62,12.25,47.59359,-54.27349
2023-10-23 10:04:00+00:00,39.0,11.9,50.0,14.08,12.25,47.59359,-54.27349
2023-10-23 10:14:01+00:00,33.0,11.91,30.0,13.57,12.25,47.59359,-54.27349
2023-10-23 10:24:01+00:00,35.0,12.65,37.0,14.63,12.25,47.59359,-54.27349
2023-10-23 10:34:01+00:00,44.0,12.7,44.0,15.51,12.25,47.59359,-54.27349
2023-10-23 10:44:01+00:00,44.0,12.03,44.0,13.75,12.25,47.59359,-54.27349
2023-10-23 10:54:01+00:00,48.0,11.95,42.0,14.66,12.25,47.59359,-54.27349
2023-10-23 11:04:01+00:00,35.0,11.56,36.0,13.35,12.25,47.59359,-54.27349
2023-10-23 11:14:01+00:00,41.0,11.04,39.0,12.4,12.25,47.59359,-54.27349
2023-10-23 11:24:01+00:00,37.0,10.75,36.0,12.13,12.25,47.59359,-54.27349
2023-10-23 11:34:01+00:00,39.0,11.59,37.0,12.68,12.25,47.59359,-54.27349
2023-10-23 11:44:01+00:00,42.0,12.59,40.0,13.91,12.25,47.59359,-54.27349
2023-10-23 11:54:01+00:00,40.0,12.02,41.0,13.88,12.25,47.59359,-54.27349
2023-10-23 12:04:01+00:00,36.0,11.1,38.0,12.5,12.25,47.59359,-54.27349
2023-10-23 12:14:00+00:00,40.0,10.48,35.0,11.98,12.33,47.59359,-54.27349
2023-10-23 12:24:00+00:00,36.0,10.77,43.0,12.43,12.33,47.59359,-54.27349
2023-10-23 12:34:00+00:00,34.0,11.38,35.0,12.63,12.33,47.59359,-54.27349
2023-10-23 12:44:00+00:00,28.0,10.57,25.0,12.64,12.33,47.59359,-54.27349
2023-10-23 12:54:00+00:00,37.0,10.18,32.0,11.37,12.33,47.59359,-54.27349
2023-10-23 13:04:00+00:00,36.0,10.23,41.0,11.06,12.33,47.59359,-54.27349
2023-10-23 13:14:01+00:00,32.0,11.09,36.0,12.17,12.57,47.59359,-54.27349
2023-10-23 13:24:01+00:00,38.0,9.11,37.0,10.3,12.57,47.59359,-54.27349
2023-10-23 13:34:01+00:00,33.0,9.71,37.0,10.86,12.57,47.59359,-54.27349
2023-10-23 13:44:01+00:00,39.0,11.4,35.0,13.17,12.57,47.59359,-54.27349
2023-10-23 13:54:01+00:00,40.0,11.27,43.0,12.26,12.57,47.59359,-54.27349
2023-10-23 14:04:01+00:00,39.0,9.8,39.0,11.41,12.57,47.59359,-54.27349
2023-10-23 14:14:00+00:00,45.0,10.91,46.0,12.19,12.97,47.59359,-54.27349
2023-10-23 14:24:00+00:00,39.0,10.19,43.0,12.0,12.97,47.59359,-54.27349
2023-10-23 14:34:00+00:00,35.0,9.63,30.0,11.99,12.97,47.59359,-54.27349
2023-10-23 14:44:00+00:00,38.0,9.58,36.0,10.73,12.97,47.59359,-54.27349
2023-10-23 14:54:00+00:00,37.0,8.97,39.0,10.22,12.97,47.59359,-54.27349
2023-10-23 15:04:00+00:00,41.0,9.04,38.0,9.86,12.97,47.59359,-54.27349
2023-10-23 15:14:00+00:00,37.0,10.22,45.0,11.65,13.21,47.59359,-54.27349
2023-10-23 15:24:00+00:00,46.0,9.53,50.0,10.92,13.21,47.59359,-54.27349
2023-10-23 15:34:00+00:00,43.0,10.18,45.0,11.6,13.21,47.59359,-54.27349
2023-10-23 15:44:00+00:00,40.0,9.44,32.0,10.51,13.21,47.59359,-54.27349
2023-10-23 15:54:00+00:00,39.0,9.33,36.0,10.49,13.21,47.59359,-54.27349
2023-10-23 16:04:00+00:00,42.0,8.98,40.0,10.3,13.21,47.59359,-54.27349
2023-10-23 16:14:00+00:00,39.0,9.05,33.0,11.11,13.05,47.59359,-54.27349
2023-10-23 16:24:00+00:00,42.0,9.61,36.0,10.88,13.05,47.59359,-54.27349
2023-10-23 16:34:00+00:00,39.0,9.55,36.0,10.8,13.05,47.59359,-54.27349
2023-10-23 16:44:00+00:00,41.0,9.4,35.0,10.04,13.05,47.59359,-54.27349
2023-10-23 16:54:00+00:00,49.0,9.02,47.0,10.45,13.05,47.59359,-54.27349
2023-10-23 17:04:00+00:00,38.0,9.72,36.0,10.77,13.05,47.59359,-54.27349
2023-10-23 17:14:00+00:00,44.0,8.77,45.0,10.0,13.44,47.59359,-54.27349
2023-10-23 17:24:00+00:00,46.0,9.55,51.0,11.45,13.44,47.59359,-54.27349
2023-10-23 17:34:00+00:00,43.0,9.32,51.0,12.3,13.44,47.59359,-54.27349
2023-10-23 17:44:00+00:00,33.0,10.25,34.0,11.44,13.44,47.59359,-54.27349
2023-10-23 17:54:00+00:00,39.0,9.78,36.0,11.08,13.44,47.59359,-54.27349
2023-10-23 18:04:00+00:00,29.0,10.36,29.0,11.41,13.44,47.59359,-54.27349
2023-10-23 18:14:01+00:00,37.0,10.21,38.0,11.1,13.29,47.59359,-54.27349
2023-10-23 18:24:01+00:00,35.0,10.06,33.0,12.07,13.29,47.59359,-54.27349
2023-10-23 18:34:01+00:00,44.0,10.6,52.0,13.6,13.29,47.59359,-54.27349
2023-10-23 18:44:01+00:00,32.0,11.42,33.0,12.44,13.29,47.59359,-54.27349
2023-10-23 18:54:01+00:00,39.0,9.77,34.0,11.33,13.29,47.59359,-54.27349
2023-10-23 19:04:01+00:00,37.0,10.42,33.0,12.56,13.29,47.59359,-54.27349
2023-10-23 19:14:01+00:00,41.0,9.48,40.0,10.01,13.13,47.59359,-54.27349
2023-10-23 19:24:01+00:00,50.0,9.27,36.0,10.59,13.13,47.59359,-54.27349
2023-10-23 19:34:01+00:00,50.0,10.46,56.0,13.88,13.13,47.59359,-54.27349
2023-10-23 19:44:01+00:00,49.0,11.65,54.0,13.8,13.13,47.59359,-54.27349
2023-10-23 19:54:01+00:00,40.0,10.8,48.0,13.25,13.13,47.59359,-54.27349
2023-10-23 20:04:01+00:00,36.0,10.47,36.0,11.3,13.13,47.59359,-54.27349
2023-10-23 20:14:00+00:00,38.0,10.21,36.0,11.82,12.73,47.59359,-54.27349
2023-10-23 20:24:00+00:00,30.0,11.7,26.0,12.99,12.73,47.59359,-54.27349
2023-10-23 20:34:00+00:00,38.0,11.44,49.0,13.12,12.73,47.59359,-54.27349
2023-10-23 20:44:00+00:00,32.0,11.07,32.0,12.38,12.73,47.59359,-54.27349
2023-10-23 20:54:00+00:00,43.0,12.6,52.0,16.46,12.73,47.59359,-54.27349
2023-10-23 21:04:00+00:00,47.0,11.47,51.0,13.65,12.73,47.59359,-54.27349
2023-10-23 21:14:01+00:00,35.0,10.94,38.0,13.67,12.49,47.59359,-54.27349
2023-10-23 21:24:01+00:00,28.0,10.07,27.0,11.11,12.49,47.59359,-54.27349
2023-10-23 21:34:01+00:00,23.0,11.85,23.0,13.24,12.49,47.59359,-54.27349
2023-10-23 21:44:01+00:00,32.0,11.64,43.0,14.21,12.49,47.59359,-54.27349
2023-10-23 21:54:01+00:00,26.0,11.02,24.0,12.97,12.49,47.59359,-54.27349
2023-10-23 22:04:01+00:00,27.0,11.61,29.0,12.55,12.49,47.59359,-54.27349
2023-10-23 22:14:00+00:00,28.0,11.28,29.0,12.78,12.49,47.59359,-54.27349
2023-10-23 22:24:00+00:00,26.0,11.66,25.0,13.37,12.49,47.59359,-54.27349
2023-10-23 22:34:00+00:00,25.0,12.24,24.0,13.62,12.49,47.59359,-54.27349
2023-10-23 22:44:00+00:00,29.0,11.52,29.0,12.01,12.49,47.59359,-54.27349
2023-10-23 22:54:00+00:00,31.0,10.63,31.0,11.99,12.49,47.59359,-54.27349
2023-10-23 23:04:00+00:00,26.0,11.79,25.0,12.99,12.49,47.59359,-54.27349
2023-10-23 23:14:01+00:00,26.0,11.1,26.0,12.54,12.41,47.59359,-54.27349
2023-10-23 23:24:01+00:00,30.0,10.35,32.0,11.83,12.41,47.59359,-54.27349
2023-10-23 23:34:01+00:00,23.0,8.81,17.0,11.06,12.41,47.59359,-54.27349
2023-10-23 23:44:01+00:00,27.0,12.32,24.0,13.7,12.41,47.59359,-54.27349
2023-10-23 23:54:01+00:00,32.0,10.16,29.0,11.8,12.41,47.59359,-54.27349
